Year,Month,Day,Hour,Minute,Value (Times are PST for temperature in C)
2002,03,16,00,00,3.20
2002,03,16,00,01,3.30
2002,03,16,00,02,3.30
2002,03,16,00,03,3.30
2002,03,16,00,04,3.30
2002,03,16,00,05,3.30
2002,03,16,00,06,3.30
2002,03,16,00,07,3.30
2002,03,16,00,08,3.30
2002,03,16,00,09,3.30
2002,03,16,00,10,3.30
2002,03,16,00,11,3.30
2002,03,16,00,12,3.30
2002,03,16,00,13,3.30
2002,03,16,00,14,3.30
2002,03,16,00,15,3.30
2002,03,16,00,16,3.30
2002,03,16,00,17,3.30
2002,03,16,00,18,3.30
2002,03,16,00,19,3.30
2002,03,16,00,20,3.30
2002,03,16,00,21,3.30
2002,03,16,00,22,3.30
2002,03,16,00,23,3.30
2002,03,16,00,24,3.30
2002,03,16,00,25,3.20
2002,03,16,00,26,3.20
2002,03,16,00,27,3.20
2002,03,16,00,28,3.10
2002,03,16,00,29,3.10
2002,03,16,00,30,3.10
2002,03,16,00,31,3.10
2002,03,16,00,32,3.10
2002,03,16,00,33,3.10
2002,03,16,00,34,3.10
2002,03,16,00,35,3.10
2002,03,16,00,36,3.10
2002,03,16,00,37,3.10
2002,03,16,00,38,3.10
2002,03,16,00,39,3.10
2002,03,16,00,40,3.10
2002,03,16,00,41,3.10
2002,03,16,00,42,3.10
2002,03,16,00,43,3.10
2002,03,16,00,44,3.10
2002,03,16,00,45,3.10
2002,03,16,00,46,3.10
2002,03,16,00,47,3.10
2002,03,16,00,48,3.10
2002,03,16,00,49,3.10
2002,03,16,00,50,3.10
2002,03,16,00,51,3.10
2002,03,16,00,52,3.10
2002,03,16,00,53,3.10
2002,03,16,00,54,3.10
2002,03,16,00,55,3.10
2002,03,16,00,56,3.10
2002,03,16,00,57,3.10
2002,03,16,00,58,3.10
2002,03,16,00,59,3.10
2002,03,16,01,50,2.60
2002,03,16,01,51,2.60
2002,03,16,01,52,2.60
2002,03,16,01,53,2.60
2002,03,16,01,54,2.60
2002,03,16,01,55,2.60
2002,03,16,01,56,2.60
2002,03,16,01,57,2.60
2002,03,16,01,58,2.60
2002,03,16,01,59,2.60
2002,03,16,02,00,2.60
2002,03,16,02,01,2.60
2002,03,16,02,02,2.60
2002,03,16,02,03,2.60
2002,03,16,02,04,2.60
2002,03,16,02,05,2.60
2002,03,16,02,06,2.60
2002,03,16,02,07,2.60
2002,03,16,02,08,2.70
2002,03,16,02,09,2.70
2002,03,16,02,10,2.70
2002,03,16,02,11,2.70
2002,03,16,02,12,2.70
2002,03,16,02,13,2.70
2002,03,16,02,14,2.70
2002,03,16,02,15,2.70
2002,03,16,02,16,2.70
2002,03,16,02,17,2.70
2002,03,16,02,18,2.80
2002,03,16,02,19,2.80
2002,03,16,02,20,2.80
2002,03,16,02,21,2.80
2002,03,16,02,22,2.80
2002,03,16,02,23,2.90
2002,03,16,02,24,2.90
2002,03,16,02,25,2.90
2002,03,16,02,26,2.90
2002,03,16,02,27,2.90
2002,03,16,02,28,2.90
2002,03,16,02,29,2.90
2002,03,16,02,30,2.90
2002,03,16,02,31,2.90
2002,03,16,02,32,2.90
2002,03,16,02,33,2.90
2002,03,16,02,34,2.90
2002,03,16,02,35,2.90
2002,03,16,02,36,2.90
2002,03,16,02,37,2.90
2002,03,16,02,38,3.10
2002,03,16,02,39,3.10
2002,03,16,02,40,3.10
2002,03,16,02,41,3.10
2002,03,16,02,42,3.10
2002,03,16,02,43,3.10
2002,03,16,02,44,3.10
2002,03,16,02,45,3.10
2002,03,16,02,46,3.10
2002,03,16,02,47,3.10
2002,03,16,02,48,3.10
2002,03,16,02,49,3.10
2002,03,16,02,50,3.10
2002,03,16,02,51,3.10
2002,03,16,02,52,3.10
2002,03,16,02,53,3.10
2002,03,16,02,54,3.10
2002,03,16,02,55,3.10
2002,03,16,02,56,3.10
2002,03,16,02,57,3.10
2002,03,16,02,58,3.10
2002,03,16,02,59,3.10
2002,03,16,03,00,3.10
2002,03,16,03,01,3.10
2002,03,16,03,02,3.10
2002,03,16,03,03,3.10
2002,03,16,03,04,3.10
2002,03,16,03,05,3.10
2002,03,16,03,06,3.10
2002,03,16,03,07,3.10
2002,03,16,03,08,3.10
2002,03,16,03,09,3.10
2002,03,16,03,10,3.10
2002,03,16,03,11,3.10
2002,03,16,03,12,3.10
2002,03,16,03,13,3.10
2002,03,16,03,14,3.10
2002,03,16,03,15,3.10
2002,03,16,03,16,3.10
2002,03,16,03,17,3.10
2002,03,16,03,18,3.10
2002,03,16,03,19,3.10
2002,03,16,03,20,3.10
2002,03,16,03,21,3.10
2002,03,16,03,22,3.10
2002,03,16,03,23,3.10
2002,03,16,03,24,3.10
2002,03,16,03,25,3.10
2002,03,16,03,26,3.10
2002,03,16,03,27,3.10
2002,03,16,03,28,3.10
2002,03,16,03,29,3.10
2002,03,16,03,30,3.10
2002,03,16,03,31,3.10
2002,03,16,03,32,3.10
2002,03,16,03,33,3.10
2002,03,16,03,34,3.10
2002,03,16,03,35,3.10
2002,03,16,03,36,3.10
2002,03,16,03,37,3.10
2002,03,16,03,38,3.10
2002,03,16,03,39,3.00
2002,03,16,03,40,3.10
2002,03,16,03,41,3.10
2002,03,16,03,42,3.10
2002,03,16,03,43,3.10
2002,03,16,03,44,3.10
2002,03,16,03,45,3.10
2002,03,16,03,46,3.10
2002,03,16,03,47,3.10
2002,03,16,03,48,3.10
2002,03,16,03,49,3.10
2002,03,16,03,50,3.10
2002,03,16,03,51,3.10
2002,03,16,03,52,3.10
2002,03,16,03,53,3.10
2002,03,16,03,54,3.10
2002,03,16,03,55,3.10
2002,03,16,03,56,3.10
2002,03,16,03,57,3.10
2002,03,16,03,58,3.10
2002,03,16,03,59,3.10
2002,03,16,04,00,3.10
2002,03,16,04,01,3.10
2002,03,16,04,02,3.10
2002,03,16,04,03,3.10
2002,03,16,04,04,3.10
2002,03,16,04,05,3.10
2002,03,16,04,06,3.10
2002,03,16,04,07,3.10
2002,03,16,04,08,3.10
2002,03,16,04,09,3.10
2002,03,16,04,10,3.10
2002,03,16,04,11,3.10
2002,03,16,04,12,3.10
2002,03,16,04,13,3.10
2002,03,16,04,14,3.10
2002,03,16,04,15,3.10
2002,03,16,04,16,3.10
2002,03,16,04,17,3.10
2002,03,16,04,18,3.10
2002,03,16,04,19,3.10
2002,03,16,04,20,3.10
2002,03,16,04,21,3.10
2002,03,16,04,22,3.10
2002,03,16,04,23,3.10
2002,03,16,04,24,3.10
2002,03,16,04,25,3.10
2002,03,16,04,26,3.10
2002,03,16,04,27,3.10
2002,03,16,04,28,3.10
2002,03,16,04,29,3.10
2002,03,16,04,32,3.10
2002,03,16,04,33,3.10
2002,03,16,04,34,3.10
2002,03,16,04,35,3.10
2002,03,16,04,36,3.10
2002,03,16,04,37,3.10
2002,03,16,04,38,3.10
2002,03,16,04,39,3.10
2002,03,16,04,40,3.10
2002,03,16,04,41,3.10
2002,03,16,04,42,3.10
2002,03,16,04,43,3.10
2002,03,16,04,44,3.10
2002,03,16,04,45,3.10
2002,03,16,04,46,3.10
2002,03,16,04,47,3.10
2002,03,16,06,29,2.70
2002,03,16,06,30,2.70
2002,03,16,06,31,2.70
2002,03,16,06,32,2.70
2002,03,16,06,33,2.70
2002,03,16,06,34,2.70
2002,03,16,06,35,2.70
2002,03,16,06,36,2.70
2002,03,16,06,37,2.70
2002,03,16,06,38,2.70
2002,03,16,06,39,2.70
2002,03,16,06,40,2.70
2002,03,16,06,41,2.70
2002,03,16,06,42,2.70
2002,03,16,06,43,2.70
2002,03,16,06,44,2.70
2002,03,16,06,45,2.70
2002,03,16,06,46,2.70
2002,03,16,06,47,2.70
2002,03,16,06,48,2.70
2002,03,16,06,49,2.70
2002,03,16,06,50,2.70
2002,03,16,06,51,2.70
2002,03,16,06,52,2.70
2002,03,16,06,53,2.70
2002,03,16,06,54,2.70
2002,03,16,06,55,2.70
2002,03,16,06,56,2.70
2002,03,16,06,57,2.70
2002,03,16,06,58,2.70
2002,03,16,06,59,2.50
2002,03,16,07,00,2.00
2002,03,16,07,01,1.80
2002,03,16,07,02,1.80
2002,03,16,07,03,1.70
2002,03,16,07,04,1.70
2002,03,16,07,05,1.70
2002,03,16,07,06,1.70
2002,03,16,07,07,1.70
2002,03,16,07,08,1.70
2002,03,16,07,09,1.70
2002,03,16,07,10,1.70
2002,03,16,07,11,1.70
2002,03,16,07,12,1.70
2002,03,16,07,13,1.70
2002,03,16,07,14,1.70
2002,03,16,07,15,1.70
2002,03,16,07,16,1.70
2002,03,16,07,17,1.70
2002,03,16,07,18,1.70
2002,03,16,08,26,0.40
2002,03,16,08,27,0.40
2002,03,16,08,28,0.40
2002,03,16,08,29,0.40
2002,03,16,08,30,0.30
2002,03,16,08,31,0.30
2002,03,16,08,32,0.30
2002,03,16,08,33,0.30
2002,03,16,08,34,0.30
2002,03,16,08,35,0.30
2002,03,16,08,36,0.40
2002,03,16,08,37,0.40
2002,03,16,08,38,0.40
2002,03,16,08,39,0.40
2002,03,16,08,40,0.40
2002,03,16,08,41,0.40
2002,03,16,08,42,0.40
2002,03,16,08,43,0.40
2002,03,16,08,44,0.40
2002,03,16,08,45,0.40
2002,03,16,08,46,0.40
2002,03,16,08,47,0.40
2002,03,16,08,48,0.40
2002,03,16,08,49,0.40
2002,03,16,08,50,0.40
2002,03,16,08,51,0.40
2002,03,16,08,52,0.40
2002,03,16,08,53,0.50
2002,03,16,08,54,0.50
2002,03,16,08,55,0.50
2002,03,16,08,56,0.50
2002,03,16,08,57,0.50
2002,03,16,08,58,0.60
2002,03,16,08,59,0.60
2002,03,16,09,00,0.70
2002,03,16,09,01,0.70
2002,03,16,09,02,0.70
2002,03,16,09,03,0.80
2002,03,16,09,04,0.70
2002,03,16,09,05,0.70
2002,03,16,09,06,0.70
2002,03,16,09,07,0.70
2002,03,16,09,08,0.70
2002,03,16,09,09,0.70
2002,03,16,09,10,0.70
2002,03,16,09,11,0.70
2002,03,16,09,12,0.70
2002,03,16,09,13,0.70
2002,03,16,09,14,0.70
2002,03,16,09,15,0.70
2002,03,16,09,16,0.70
2002,03,16,09,17,0.70
2002,03,16,09,18,0.70
2002,03,16,09,19,0.70
2002,03,16,09,20,0.70
2002,03,16,09,21,0.70
2002,03,16,09,22,0.70
2002,03,16,09,23,0.70
2002,03,16,09,24,0.70
2002,03,16,09,25,0.70
2002,03,16,09,26,0.70
2002,03,16,09,27,0.70
2002,03,16,09,28,0.80
2002,03,16,09,29,0.70
2002,03,16,09,30,0.70
2002,03,16,09,31,0.70
2002,03,16,09,32,0.70
2002,03,16,09,33,0.60
2002,03,16,09,34,0.60
2002,03,16,09,35,0.70
2002,03,16,09,36,0.70
2002,03,16,09,37,0.70
2002,03,16,09,38,0.70
2002,03,16,09,39,0.70
2002,03,16,09,40,0.70
2002,03,16,09,41,0.70
2002,03,16,09,42,0.80
2002,03,16,09,43,0.80
2002,03,16,09,44,0.80
2002,03,16,09,45,0.80
2002,03,16,09,46,0.80
2002,03,16,09,47,0.80
2002,03,16,09,48,0.80
2002,03,16,09,49,0.80
2002,03,16,09,50,0.80
2002,03,16,09,51,0.80
2002,03,16,09,52,0.80
2002,03,16,09,53,0.90
2002,03,16,09,54,0.90
2002,03,16,09,55,0.90
2002,03,16,09,56,1.00
2002,03,16,09,57,1.00
2002,03,16,09,58,1.00
2002,03,16,09,59,1.10
2002,03,16,10,00,1.10
2002,03,16,10,01,1.10
2002,03,16,10,02,1.10
2002,03,16,10,03,1.20
2002,03,16,10,04,1.20
2002,03,16,10,05,1.20
2002,03,16,10,06,1.10
2002,03,16,10,07,1.10
2002,03,16,10,08,1.10
2002,03,16,10,09,1.10
2002,03,16,10,10,1.10
2002,03,16,10,11,1.10
2002,03,16,10,12,1.10
2002,03,16,10,13,1.10
2002,03,16,10,14,1.10
2002,03,16,10,15,1.10
2002,03,16,10,16,1.00
2002,03,16,10,17,1.00
2002,03,16,10,18,1.00
2002,03,16,10,19,1.00
2002,03,16,10,20,1.00
2002,03,16,10,21,1.00
2002,03,16,10,22,0.90
2002,03,16,10,23,0.90
2002,03,16,10,24,0.80
2002,03,16,10,25,0.80
2002,03,16,10,26,0.80
2002,03,16,10,27,0.80
2002,03,16,10,28,0.80
2002,03,16,10,29,0.80
2002,03,16,10,30,0.80
2002,03,16,10,31,0.80
2002,03,16,10,32,0.80
2002,03,16,10,33,0.80
2002,03,16,10,34,0.80
2002,03,16,10,35,0.80
2002,03,16,10,36,0.80
2002,03,16,10,37,0.80
2002,03,16,10,38,0.80
2002,03,16,10,39,0.80
2002,03,16,10,40,0.80
2002,03,16,10,41,0.80
2002,03,16,10,42,0.90
2002,03,16,10,43,0.90
2002,03,16,10,44,0.90
2002,03,16,10,45,0.90
2002,03,16,10,46,0.80
2002,03,16,10,47,0.80
2002,03,16,10,48,0.80
2002,03,16,10,49,0.80
2002,03,16,10,50,0.80
2002,03,16,10,51,0.80
2002,03,16,10,52,0.80
2002,03,16,10,53,0.70
2002,03,16,10,54,0.60
2002,03,16,10,55,0.60
2002,03,16,10,56,0.60
2002,03,16,10,57,0.60
2002,03,16,10,58,0.60
2002,03,16,10,59,0.60
2002,03,16,11,00,0.60
2002,03,16,11,01,0.40
2002,03,16,11,02,0.40
2002,03,16,11,03,0.40
2002,03,16,11,04,0.40
2002,03,16,11,05,0.40
2002,03,16,11,06,0.40
2002,03,16,11,07,0.40
2002,03,16,11,08,0.40
2002,03,16,11,09,0.40
2002,03,16,11,10,0.40
2002,03,16,11,11,0.40
2002,03,16,11,12,0.40
2002,03,16,11,13,0.40
2002,03,16,11,14,0.30
2002,03,16,11,15,0.10
2002,03,16,11,16,0.10
2002,03,16,11,17,0.10
2002,03,16,11,18,0.00
2002,03,16,11,19,-0.10
2002,03,16,11,20,-0.10
2002,03,16,11,21,-0.10
2002,03,16,11,22,-0.10
2002,03,16,11,23,-0.20
2002,03,16,11,24,-0.30
2002,03,16,11,25,-0.30
2002,03,16,11,26,-0.40
2002,03,16,11,27,-0.40
2002,03,16,11,28,-0.40
2002,03,16,11,29,-0.40
2002,03,16,11,30,-0.50
2002,03,16,11,31,-0.60
2002,03,16,11,32,-0.60
2002,03,16,11,33,-0.60
2002,03,16,11,34,-0.60
2002,03,16,11,35,-0.60
2002,03,16,11,36,-0.60
2002,03,16,11,37,-0.60
2002,03,16,11,38,-0.60
2002,03,16,11,39,-0.60
2002,03,16,11,40,-0.60
2002,03,16,12,16,-0.10
2002,03,16,12,17,-0.10
2002,03,16,12,18,-0.10
2002,03,16,12,19,-0.10
2002,03,16,12,20,-0.10
2002,03,16,12,21,-0.10
2002,03,16,12,22,-0.10
2002,03,16,12,23,-0.10
2002,03,16,12,24,-0.10
2002,03,16,12,25,-0.10
2002,03,16,12,26,-0.10
2002,03,16,12,44,1.60
2002,03,16,12,45,1.60
2002,03,16,12,46,1.60
2002,03,16,12,47,1.60
2002,03,16,12,48,1.70
2002,03,16,12,49,1.70
2002,03,16,12,50,1.80
2002,03,16,12,51,1.80
2002,03,16,12,52,1.90
2002,03,16,12,53,2.00
2002,03,16,12,54,2.10
2002,03,16,12,55,2.10
2002,03,16,12,56,2.10
2002,03,16,12,57,2.10
2002,03,16,12,58,2.20
2002,03,16,12,59,2.20
2002,03,16,13,00,2.20
2002,03,16,13,01,2.20
2002,03,16,13,02,2.20
2002,03,16,13,03,2.20
2002,03,16,13,04,2.20
2002,03,16,13,05,2.20
2002,03,16,13,06,2.20
2002,03,16,13,07,2.20
2002,03,16,13,08,2.20
2002,03,16,13,09,2.20
2002,03,16,13,10,2.20
2002,03,16,13,11,2.20
2002,03,16,13,12,2.20
2002,03,16,13,13,2.10
2002,03,16,13,14,2.20
2002,03,16,13,15,2.20
2002,03,16,13,16,2.20
2002,03,16,13,17,2.20
2002,03,16,13,18,2.20
2002,03,16,13,19,2.20
2002,03,16,13,20,2.10
2002,03,16,13,21,2.10
2002,03,16,13,22,2.10
2002,03,16,13,23,2.20
2002,03,16,13,24,2.20
2002,03,16,13,25,2.20
2002,03,16,13,26,2.20
2002,03,16,13,27,2.30
2002,03,16,13,28,2.30
2002,03,16,13,29,2.30
2002,03,16,13,30,2.30
2002,03,16,13,31,2.30
2002,03,16,13,32,2.30
2002,03,16,13,33,2.30
2002,03,16,13,34,2.30
2002,03,16,13,35,2.20
2002,03,16,13,36,2.20
2002,03,16,13,37,2.20
2002,03,16,13,38,2.30
2002,03,16,13,39,2.40
2002,03,16,13,40,2.50
2002,03,16,13,41,2.50
2002,03,16,13,42,2.40
2002,03,16,13,43,2.40
2002,03,16,13,44,2.40
2002,03,16,13,45,2.30
2002,03,16,13,46,2.30
2002,03,16,13,47,2.30
2002,03,16,13,48,2.30
2002,03,16,13,49,2.30
2002,03,16,13,50,2.40
2002,03,16,13,51,2.40
2002,03,16,13,52,2.40
2002,03,16,13,53,2.40
2002,03,16,13,54,2.50
2002,03,16,13,55,2.50
2002,03,16,13,56,2.50
2002,03,16,13,57,2.50
2002,03,16,13,58,2.50
2002,03,16,13,59,2.50
2002,03,16,14,00,2.50
2002,03,16,14,01,2.50
2002,03,16,14,02,2.40
2002,03,16,14,03,2.50
2002,03,16,14,04,2.50
2002,03,16,14,05,2.50
2002,03,16,14,06,2.50
2002,03,16,14,07,2.50
2002,03,16,14,08,2.50
2002,03,16,14,09,2.60
2002,03,16,14,10,2.60
2002,03,16,14,11,2.70
2002,03,16,14,12,2.70
2002,03,16,14,13,2.70
2002,03,16,14,14,2.80
2002,03,16,14,15,2.70
2002,03,16,14,16,2.70
2002,03,16,14,17,2.70
2002,03,16,14,18,2.70
2002,03,16,14,19,2.70
2002,03,16,14,20,2.80
2002,03,16,14,21,2.90
2002,03,16,14,22,2.90
2002,03,16,14,23,2.90
2002,03,16,14,24,2.70
2002,03,16,14,25,2.70
2002,03,16,14,26,2.80
2002,03,16,14,27,2.90
2002,03,16,14,28,2.90
2002,03,16,14,29,2.90
2002,03,16,14,30,3.00
2002,03,16,14,31,3.10
2002,03,16,14,32,3.00
2002,03,16,14,33,3.00
2002,03,16,14,34,3.10
2002,03,16,14,35,3.20
2002,03,16,14,36,3.30
2002,03,16,14,37,3.40
2002,03,16,14,38,3.40
2002,03,16,14,39,3.40
2002,03,16,14,40,3.20
2002,03,16,14,41,3.30
2002,03,16,14,42,3.30
2002,03,16,14,43,3.30
2002,03,16,14,44,3.30
2002,03,16,14,45,3.20
2002,03,16,14,46,3.10
2002,03,16,14,47,3.10
2002,03,16,14,48,3.20
2002,03,16,14,49,3.10
2002,03,16,14,50,3.10
2002,03,16,14,51,3.10
2002,03,16,14,52,3.10
2002,03,16,14,53,3.10
2002,03,16,14,54,3.10
2002,03,16,14,55,3.10
2002,03,16,14,56,3.10
2002,03,16,14,57,3.10
2002,03,16,14,58,3.10
2002,03,16,14,59,3.20
2002,03,16,15,00,3.20
2002,03,16,15,01,3.30
2002,03,16,15,02,3.20
2002,03,16,15,03,3.10
2002,03,16,15,04,3.10
2002,03,16,15,05,3.10
2002,03,16,15,06,3.10
2002,03,16,15,07,3.10
2002,03,16,15,08,3.10
2002,03,16,15,09,3.00
2002,03,16,15,10,3.00
2002,03,16,15,11,2.90
2002,03,16,15,12,2.90
2002,03,16,15,13,2.90
2002,03,16,15,14,2.90
2002,03,16,15,15,2.90
2002,03,16,15,16,2.90
2002,03,16,15,17,2.90
2002,03,16,15,18,2.90
2002,03,16,15,19,3.10
2002,03,16,15,20,3.10
2002,03,16,15,21,3.10
2002,03,16,15,22,3.10
2002,03,16,15,23,3.10
2002,03,16,15,24,3.10
2002,03,16,15,25,3.10
2002,03,16,15,26,3.10
2002,03,16,15,27,3.10
2002,03,16,15,28,2.90
2002,03,16,15,29,2.90
2002,03,16,15,30,3.00
2002,03,16,15,31,3.10
2002,03,16,15,32,3.10
2002,03,16,15,33,3.20
2002,03,16,15,34,3.30
2002,03,16,15,35,3.30
2002,03,16,15,36,3.30
2002,03,16,15,37,3.20
2002,03,16,15,38,3.20
2002,03,16,15,39,3.10
2002,03,16,15,40,3.10
2002,03,16,15,41,3.10
2002,03,16,15,42,3.20
2002,03,16,15,43,3.20
2002,03,16,15,44,3.20
2002,03,16,15,45,3.20
2002,03,16,15,46,3.30
2002,03,16,15,47,3.30
2002,03,16,15,48,3.30
2002,03,16,15,49,3.30
2002,03,16,15,50,3.30
2002,03,16,15,51,3.30
2002,03,16,15,52,3.20
2002,03,16,15,53,3.30
2002,03,16,15,54,3.30
2002,03,16,15,55,3.30
2002,03,16,15,56,3.30
2002,03,16,15,57,3.30
2002,03,16,15,58,3.30
2002,03,16,15,59,3.30
2002,03,16,16,00,3.30
2002,03,16,16,01,3.50
2002,03,16,16,02,3.40
2002,03,16,16,03,3.40
2002,03,16,16,04,3.50
2002,03,16,16,05,3.50
2002,03,16,16,06,3.50
2002,03,16,16,07,3.50
2002,03,16,16,08,3.50
2002,03,16,16,09,3.50
2002,03,16,16,10,3.40
2002,03,16,16,11,3.50
2002,03,16,16,12,3.50
2002,03,16,16,13,3.40
2002,03,16,16,14,3.30
2002,03,16,16,15,3.20
2002,03,16,16,16,3.10
2002,03,16,16,17,3.10
2002,03,16,16,18,3.10
2002,03,16,16,19,3.10
2002,03,16,16,20,3.00
2002,03,16,16,21,2.90
2002,03,16,16,22,2.90
2002,03,16,16,23,2.80
2002,03,16,16,24,2.90
2002,03,16,16,25,2.80
2002,03,16,16,26,2.80
2002,03,16,16,27,2.80
2002,03,16,16,28,2.80
2002,03,16,16,29,2.80
2002,03,16,16,30,2.80
2002,03,16,16,31,2.70
2002,03,16,16,32,2.70
2002,03,16,16,33,2.70
2002,03,16,16,34,2.70
2002,03,16,16,35,2.70
2002,03,16,16,36,2.70
2002,03,16,16,37,2.70
2002,03,16,16,38,2.70
2002,03,16,16,39,2.70
2002,03,16,16,40,2.70
2002,03,16,16,41,2.70
2002,03,16,16,42,2.70
2002,03,16,16,43,2.70
2002,03,16,16,44,2.70
2002,03,16,16,45,2.70
2002,03,16,16,46,2.70
2002,03,16,16,47,2.70
2002,03,16,16,48,2.70
2002,03,16,16,49,2.60
2002,03,16,16,50,2.60
2002,03,16,16,51,2.60
2002,03,16,16,52,2.60
2002,03,16,16,53,2.60
2002,03,16,16,54,2.60
2002,03,16,16,55,2.50
2002,03,16,16,56,2.50
2002,03,16,16,57,2.50
2002,03,16,16,58,2.50
2002,03,16,16,59,2.50
2002,03,16,17,00,2.50
2002,03,16,17,01,2.50
2002,03,16,17,02,2.50
2002,03,16,17,03,2.40
2002,03,16,17,04,2.40
2002,03,16,17,05,2.40
2002,03,16,17,06,2.40
2002,03,16,17,07,2.40
2002,03,16,17,08,2.50
2002,03,16,17,09,2.50
2002,03,16,17,10,2.50
2002,03,16,17,11,2.50
2002,03,16,17,12,2.50
2002,03,16,17,13,2.50
2002,03,16,17,14,2.50
2002,03,16,17,15,2.50
2002,03,16,17,16,2.50
2002,03,16,17,17,2.50
2002,03,16,17,18,2.50
2002,03,16,17,19,2.50
2002,03,16,17,20,2.50
2002,03,16,17,21,2.50
2002,03,16,17,22,2.50
2002,03,16,17,23,2.50
2002,03,16,17,24,2.50
2002,03,16,17,25,2.50
2002,03,16,17,26,2.60
2002,03,16,17,27,2.60
2002,03,16,17,28,2.60
2002,03,16,17,29,2.60
2002,03,16,17,30,2.60
2002,03,16,17,31,2.60
2002,03,16,17,32,2.60
2002,03,16,17,33,2.50
2002,03,16,17,34,2.50
2002,03,16,17,35,2.50
2002,03,16,17,36,2.50
2002,03,16,17,37,2.50
2002,03,16,17,38,2.40
2002,03,16,17,39,2.40
2002,03,16,17,40,2.40
2002,03,16,17,41,2.40
2002,03,16,17,42,2.40
2002,03,16,17,43,2.40
2002,03,16,17,44,2.40
2002,03,16,17,45,2.40
2002,03,16,17,46,2.40
2002,03,16,17,47,2.40
2002,03,16,17,48,2.40
2002,03,16,17,49,2.40
2002,03,16,17,50,2.30
2002,03,16,17,51,2.30
2002,03,16,17,52,2.30
2002,03,16,17,53,2.30
2002,03,16,17,54,2.30
2002,03,16,17,55,2.30
2002,03,16,17,56,2.30
2002,03,16,17,57,2.30
2002,03,16,17,58,2.30
2002,03,16,17,59,2.30
2002,03,16,18,00,2.30
2002,03,16,18,01,2.20
2002,03,16,18,02,2.20
2002,03,16,18,03,2.20
2002,03,16,18,04,2.20
2002,03,16,18,05,2.20
2002,03,16,18,06,2.20
2002,03,16,18,07,2.20
2002,03,16,18,08,2.20
2002,03,16,18,09,2.20
2002,03,16,18,10,2.20
2002,03,16,18,11,2.20
2002,03,16,18,12,2.20
2002,03,16,18,13,2.20
2002,03,16,18,14,2.20
2002,03,16,18,15,2.20
2002,03,16,18,16,2.20
2002,03,16,18,17,2.20
2002,03,16,18,18,2.20
2002,03,16,18,19,2.20
2002,03,16,18,20,2.10
2002,03,16,18,21,2.10
2002,03,16,18,22,2.10
2002,03,16,18,23,2.10
2002,03,16,18,24,2.10
2002,03,16,18,25,2.10
2002,03,16,18,26,2.00
2002,03,16,18,27,2.10
2002,03,16,18,28,2.10
2002,03,16,18,29,2.10
2002,03,16,18,30,2.10
2002,03,16,18,31,2.10
2002,03,16,18,32,2.10
2002,03,16,18,33,2.10
2002,03,16,18,34,2.10
2002,03,16,18,35,2.10
2002,03,16,18,36,2.10
2002,03,16,18,37,2.10
2002,03,16,18,38,2.10
2002,03,16,18,39,2.10
2002,03,16,18,40,2.00
2002,03,16,18,41,2.00
2002,03,16,18,42,2.00
2002,03,16,18,43,2.00
2002,03,16,18,44,2.00
2002,03,16,18,45,2.00
2002,03,16,18,46,1.90
2002,03,16,18,47,1.90
2002,03,16,18,48,2.00
2002,03,16,18,49,2.00
2002,03,16,18,50,2.00
2002,03,16,18,51,2.00
2002,03,16,18,52,2.00
2002,03,16,18,53,1.90
2002,03,16,18,54,1.90
2002,03,16,18,55,1.90
2002,03,16,18,56,1.90
2002,03,16,18,57,1.90
2002,03,16,18,58,1.90
2002,03,16,18,59,1.80
2002,03,16,19,00,1.80
2002,03,16,19,01,1.80
2002,03,16,19,02,1.90
2002,03,16,19,03,1.90
2002,03,16,19,04,1.90
2002,03,16,19,05,1.80
2002,03,16,19,06,1.80
2002,03,16,19,07,1.80
2002,03,16,19,08,1.80
2002,03,16,19,09,1.80
2002,03,16,19,10,1.80
2002,03,16,19,11,1.80
2002,03,16,19,12,1.80
2002,03,16,19,13,1.80
2002,03,16,19,14,1.80
2002,03,16,19,15,1.80
2002,03,16,19,16,1.80
2002,03,16,19,17,1.80
2002,03,16,19,18,1.80
2002,03,16,19,19,1.80
2002,03,16,19,20,1.80
2002,03,16,19,21,1.70
2002,03,16,19,22,1.70
2002,03,16,19,23,1.70
2002,03,16,19,24,1.70
2002,03,16,19,25,1.70
2002,03,16,19,26,1.70
2002,03,16,19,27,1.70
2002,03,16,19,28,1.70
2002,03,16,19,29,1.70
2002,03,16,19,30,1.70
2002,03,16,19,31,1.70
2002,03,16,19,32,1.70
2002,03,16,19,33,1.70
2002,03,16,19,34,1.70
2002,03,16,19,35,1.70
2002,03,16,19,36,1.70
2002,03,16,19,37,1.70
2002,03,16,19,38,1.70
2002,03,16,19,39,1.60
2002,03,16,19,40,1.60
2002,03,16,19,41,1.60
2002,03,16,19,42,1.60
2002,03,16,19,43,1.60
2002,03,16,19,44,1.60
2002,03,16,19,45,1.60
2002,03,16,19,46,1.60
2002,03,16,19,47,1.60
2002,03,16,19,48,1.60
2002,03,16,19,49,1.60
2002,03,16,19,50,1.50
2002,03,16,19,51,1.50
2002,03,16,19,52,1.50
2002,03,16,19,53,1.50
2002,03,16,19,54,1.50
2002,03,16,19,55,1.50
2002,03,16,19,56,1.50
2002,03,16,19,57,1.50
2002,03,16,19,58,1.50
2002,03,16,19,59,1.50
2002,03,16,20,00,1.50
2002,03,16,20,01,1.50
2002,03,16,20,02,1.50
2002,03,16,20,03,1.50
2002,03,16,20,04,1.50
2002,03,16,20,05,1.50
2002,03,16,20,06,1.50
2002,03,16,20,07,1.50
2002,03,16,20,08,1.50
2002,03,16,20,09,1.50
2002,03,16,20,10,1.50
2002,03,16,20,11,1.40
2002,03,16,20,12,1.40
2002,03,16,20,13,1.40
2002,03,16,20,14,1.40
2002,03,16,20,15,1.40
2002,03,16,20,16,1.40
2002,03,16,20,17,1.40
2002,03,16,20,18,1.40
2002,03,16,20,19,1.40
2002,03,16,20,20,1.40
2002,03,16,20,21,1.40
2002,03,16,20,22,1.40
2002,03,16,20,23,1.40
2002,03,16,20,24,1.40
2002,03,16,20,25,1.30
2002,03,16,20,26,1.30
2002,03,16,20,27,1.30
2002,03,16,20,28,1.30
2002,03,16,20,29,1.30
2002,03,16,20,30,1.30
2002,03,16,20,31,1.30
2002,03,16,20,32,1.30
2002,03,16,20,33,1.30
2002,03,16,20,34,1.30
2002,03,16,20,35,1.30
2002,03,16,20,36,1.30
2002,03,16,20,37,1.30
2002,03,16,20,38,1.20
2002,03,16,20,39,1.20
2002,03,16,20,40,1.20
2002,03,16,20,41,1.20
2002,03,16,20,42,1.20
2002,03,16,20,43,1.20
2002,03,16,20,44,1.20
2002,03,16,20,45,1.20
2002,03,16,20,46,1.20
2002,03,16,20,47,1.20
2002,03,16,20,48,1.20
2002,03,16,20,49,1.20
2002,03,16,20,50,1.20
2002,03,16,20,51,1.20
2002,03,16,20,52,1.20
2002,03,16,20,53,1.20
2002,03,16,20,54,1.20
2002,03,16,20,55,1.10
2002,03,16,20,56,1.10
2002,03,16,20,57,1.10
2002,03,16,20,58,1.10
2002,03,16,20,59,1.10
2002,03,16,21,00,1.10
2002,03,16,21,01,1.10
2002,03,16,21,02,1.10
2002,03,16,21,03,1.10
2002,03,16,21,04,1.10
2002,03,16,21,05,1.10
2002,03,16,21,06,1.00
2002,03,16,21,07,1.00
2002,03,16,21,08,1.00
2002,03,16,21,09,1.00
2002,03,16,21,10,1.00
2002,03,16,21,11,1.00
2002,03,16,21,12,1.00
2002,03,16,21,13,1.00
2002,03,16,21,14,1.00
2002,03,16,21,15,0.90
2002,03,16,21,16,0.90
2002,03,16,21,17,0.90
2002,03,16,21,18,1.00
2002,03,16,21,19,1.00
2002,03,16,21,20,1.00
2002,03,16,21,21,0.90
2002,03,16,21,22,0.90
2002,03,16,21,23,0.90
2002,03,16,21,24,0.90
2002,03,16,21,25,0.90
2002,03,16,21,26,0.90
2002,03,16,21,27,0.80
2002,03,16,21,28,0.80
2002,03,16,21,29,0.80
2002,03,16,21,30,0.80
2002,03,16,21,31,0.80
2002,03,16,21,32,0.80
2002,03,16,21,33,0.80
2002,03,16,21,34,0.80
2002,03,16,21,35,0.80
2002,03,16,21,36,0.80
2002,03,16,21,37,0.80
2002,03,16,21,38,0.80
2002,03,16,21,39,0.80
2002,03,16,21,40,0.80
2002,03,16,21,41,0.80
2002,03,16,21,42,0.80
2002,03,16,21,43,0.70
2002,03,16,21,44,0.70
2002,03,16,21,45,0.70
2002,03,16,21,46,0.70
2002,03,16,21,47,0.70
2002,03,16,21,48,0.70
2002,03,16,21,49,0.70
2002,03,16,21,50,0.70
2002,03,16,21,51,0.70
2002,03,16,21,52,0.70
2002,03,16,21,53,0.70
2002,03,16,21,54,0.70
2002,03,16,21,55,0.60
2002,03,16,21,56,0.70
2002,03,16,21,57,0.70
2002,03,16,21,58,0.70
2002,03,16,21,59,0.70
2002,03,16,22,00,0.60
2002,03,16,22,01,0.60
2002,03,16,22,02,0.60
2002,03,16,22,03,0.60
2002,03,16,22,04,0.70
2002,03,16,22,05,0.70
2002,03,16,22,06,0.60
2002,03,16,22,07,0.60
2002,03,16,22,08,0.60
2002,03,16,22,09,0.60
2002,03,16,22,10,0.60
2002,03,16,22,11,0.60
2002,03,16,22,12,0.60
2002,03,16,22,13,0.60
2002,03,16,22,14,0.50
2002,03,16,22,15,0.50
2002,03,16,22,16,0.50
2002,03,16,22,17,0.50
2002,03,16,22,18,0.50
2002,03,16,22,19,0.50
2002,03,16,22,20,0.50
2002,03,16,22,21,0.50
2002,03,16,22,22,0.50
2002,03,16,22,23,0.50
2002,03,16,22,24,0.50
2002,03,16,22,25,0.50
2002,03,16,22,26,0.50
2002,03,16,22,27,0.50
2002,03,16,22,28,0.50
2002,03,16,22,29,0.50
2002,03,16,22,30,0.50
2002,03,16,22,31,0.50
2002,03,16,22,32,0.50
2002,03,16,22,33,0.50
2002,03,16,22,34,0.50
2002,03,16,22,35,0.50
2002,03,16,22,36,0.60
2002,03,16,22,37,0.60